Regional Weather Roundup
Issued by NWS

Home | Current Version | Previous Version | Graphics & Text | Print | Product List | Glossary On
Versions: 1 2 3 4 5 6 7 8 9 10 11 12 13 14 15 16 17 18 19 20 21 22 23 24 25 26 27 28 29 30 31 32 33 34 35 36 37 38 39 40 41 42 43 44 45 46 47 48 49 50
381
ASUS45 KTFX 251810
RWRMT
MONTANA REGIONAL WEATHER ROUNDUP
NATIONAL WEATHER SERVICE GREAT FALLS MT
1200 PM MDT SAT MAR 25 2017

NOTE: "FAIR" INDICATES FEW OR NO CLOUDS BELOW 12000 FEET WITH NO
SIGNIFICANT WEATHER AND/OR OBSTRUCTIONS TO VISIBILITY.

MTZ001>007-043-251900-
WEST OF THE DIVIDE

CITY           SKY/WX    TMP DP  RH WIND       PRES   REMARKS
KALISPELL      PTSUNNY   49  29  46 SW10      29.98F
MISSOULA       CLOUDY    46  32  58 E3        30.03F
BUTTE          PTSUNNY   42  21  43 VRB5      30.00F
MULLAN PASS    SNOW      29  29 100 VRB3      29.97S VSB 1/2
ANACONDA         N/A     43  21  42 SW10      30.01S
DEER LODGE       N/A     45  25  45 CALM      30.02F
EUREKA           N/A     48  30  49 S16       29.97S
HAMILTON         N/A     46  27  46 SE9       30.03F
RONAN            N/A     49  32  52 SE5       30.06F
$$

MTZ008-052>055-251900-
SOUTHWEST MONTANA

CITY           SKY/WX    TMP DP  RH WIND       PRES   REMARKS
BOZEMAN        PTSUNNY   46  31  55 VRB5      30.01F
DILLON           N/A     44  26  49 CALM      29.99F
W YELLOWSTONE  CLOUDY    34  30  86 SW10      30.01F WCI  26
ENNIS          PTSUNNY   43  25  49 NW5       30.04F
THREE FORKS      N/A     48 -57   1 CALM      30.00F
$$

MTZ009-010-012-014-046-048-049-054-251900-
EAST SLOPES AND CENTRAL MONTANA

CITY           SKY/WX    TMP DP  RH WIND       PRES   REMARKS
CUT BANK         N/A     49  24  37 W22G32    29.91F
GREAT FALLS      N/A     51  21  30 SW20G25   29.95F
MALMSTROM AFB    N/A     51  21  29 SW23G30   29.94F
HELENA           N/A     50  25  37 NW15      29.98F
AUGUSTA          N/A     46  18  32 SW12G18   29.93F
BOWMANS CRNR     N/A     45  22  41 S16G23    29.93F
CHOTEAU          N/A     48  19  32 S6G13     29.96S
FAIRFIELD        N/A     48  17  29 SW12      29.94S
POWER            N/A     49  19  30 W21G28    29.93F
RAYNESFORD       N/A     50  17  27 W23G35    29.93F
$$

MTZ011-013-016-021-045-047-050-051-251900-
NORTH CENTRAL MONTANA

CITY           SKY/WX    TMP DP  RH WIND       PRES   REMARKS
HAVRE            N/A     56  25  30 W20G28    29.92S
LEWISTOWN        N/A     49  21  33 NW13      29.95F
N BAR RANCH      N/A     48  19  32 N6        29.98F
CHINOOK          N/A     54  25  32 W20G25    29.92S
DENTON           N/A     50  20  30 N9        29.92S
FORT BENTON      N/A     54  21  28 MISG      29.96F
GEYSER         PTSUNNY   49  19  29 W17G24    29.94F
GRASS RANGE    PTSUNNY   50  19  29 W13       29.92F
STANFORD         N/A     48  18  29 NW7       29.95S
WINIFRED         N/A     50  20  30 W8G18     29.94S
$$

MTZ017>020-022>027-061-062-251900-
NORTHEAST MONTANA

CITY           SKY/WX    TMP DP  RH WIND       PRES   REMARKS
GLASGOW          N/A     56  26  31 NW22G30   29.90S
JORDAN           N/A     55  24  30 NW12      29.94R
SIDNEY         PTSUNNY   56  30  37 W14       29.91R
WOLF POINT     PTSUNNY   58  30  34 W14       29.90R
MALTA          SUNNY     55  27  33 W26G33    29.90F
PLENTYWOOD       N/A     52  30  43 W17       29.86R
POPLAR           N/A     54  28  37 W14       29.90S
$$

MTZ028>42-056>058-251900-
SOUTHCENTRAL AND SOUTHEAST MONTANA

CITY           SKY/WX    TMP DP  RH WIND       PRES   REMARKS
BAKER            N/A     58  30  34 N12       29.93S
BILLINGS       PTSUNNY   50  31  48 N7        29.99S
LIVINGSTON     CLOUDY    44  33  65 NW6       29.99F
MILES CITY     CLOUDY    56  30  37 NW15      29.95S
FORSYTH          N/A     54  30  40 NW8       29.97S
HARLOWTON      PTSUNNY   46  24  41 W18       29.97F
LAUREL           N/A     50  28  42 N5        29.98F
$$

REGIONAL REPORTS...DAKOTAS

CITY           SKY/WX    TMP DP  RH WIND       PRES   REMARKS
WILLISTON      PTSUNNY   57  33  40 W12       29.89R
MINOT          CLOUDY    39  32  76 S13       29.93R WCI  31
DICKINSON        N/A     52  33  48 SW13      29.91R
BEACH            N/A    N/A N/A N/A MISG        N/A
TIOGA          CLOUDY    48  41  76 SW14      29.89R
WATFORD CITY     N/A     57  34  41 W16       29.89S
BISMARCK       CLOUDY    39  33  79 SE14      30.03F WCI  31
GRAND FORKS    CLOUDY    37  33  85 S16G25    30.14F WCI  28
FARGO          CLOUDY    36  32  85 S12       30.15F WCI  28
BUFFALO SD       N/A     55  34  45 NW10      29.85F
RAPID CITY       N/A     61  33  35 SE10      29.90F
$$

REGIONAL REPORTS...WYOMING/IDAHO/WASHINGTON

CITY           SKY/WX    TMP DP  RH WIND       PRES   REMARKS
GILLETTE         N/A     57  33  40 N13       29.94F
SHERIDAN       CLOUDY    51  34  52 NW13      29.99F
BUFFALO WY     CLOUDY    53  32  44 N20G26    29.98F
CODY             N/A     47  31  53 N10       29.98S
YELLOWSTONE LA   N/A     37  28  70 VRB6      30.01F
IDAHO FALLS    PTSUNNY   43  36  76 SW16      30.02F
SALMON         PTSUNNY   45  27  49 CALM      30.03F
BOISE            N/A     50  35  56 VRB3      30.09S
SPOKANE        PTSUNNY   44  36  73 S14       30.03F
$$

REGIONAL REPORTS...ALBERTA

CITY           SKY/WX    TMP DP  RH WIND       PRES   REMARKS
EDMONTON       CLOUDY    34  28  80 W2        29.75S
CALGARY        PTSUNNY   48  16  27 SW9       29.77F
LETHBRIDGE     PTSUNNY   52  25  35 SW21      29.85F
MEDICINE HAT   MOSUNNY   55  23  28 W22       29.83F
WATERTON GATE    N/A     41  27  56 SW15G23     N/A
CARDSTON         N/A     48  27  43 SW8         N/A
MILK RIVER       N/A     52  25  35 SW13G23     N/A
$$

REGIONAL REPORTS...SASKATCHEWAN

CITY           SKY/WX    TMP DP  RH WIND       PRES   REMARKS
SWIFT CURRENT  SUNNY     46  36  66 W18G29    29.80R
REGINA         PTSUNNY   54  34  47 W22G31    29.75R
SASKATOON      CLOUDY    39  34  81 W20G25    29.71R WCI  30
CYPRESS HILLS    N/A     45  19  36 W13G22      N/A
VAL MARIE        N/A     52  23  32 W23G29      N/A
ROCKGLEN         N/A     52  25  35 W20G25      N/A
ASSINIBOIA       N/A     34  28  80 NW6         N/A  WCI  29
$$




USA.gov is the U.S. government's official web portal to all federal, state and local government web resources and services.